Regional Weather Roundup
Issued by NWS

Home | Current Version | Previous Version | Graphics & Text | Print | Product List | Glossary On
Versions: 1 2 3 4 5 6 7 8 9 10 11 12 13 14 15 16 17 18 19 20 21 22 23 24 25 26 27 28 29 30 31 32 33 34 35 36 37 38 39 40 41 42 43 44 45 46 47 48 49 50
000
ASUS45 KPSR 290210
RWRAZ

ARIZONA HOURLY REGIONAL WEATHER ROUNDUP
NATIONAL WEATHER SERVICE PHOENIX AZ
700 PM MST FRI APR 28 2017

NOTE: FAIR INDICATES FEW OR NO CLOUDS BELOW 12,000 FEET WITH NO
SIGNIFICANT WEATHER AND/OR OBSTRUCTIONS TO VISIBILITY.

AZZ001>003-036-290300-
NORTHWEST ARIZONA

CITY           SKY/WX    TMP DP  RH WIND       PRES   REMARKS
BULLHEAD CITY  CLEAR     73   5   7 N26G33    29.75R
KINGMAN        CLEAR     57  14  18 N22G29    29.85R
$$

AZZ004>008-015-016-018-290300-
NORTH CENTRAL ARIZONA

CITY           SKY/WX    TMP DP  RH WIND       PRES   REMARKS
GRAND CANYON   PTCLDY    39  13  34 VRB6      29.86R WCI  35
WILLIAMS       CLEAR     39  10  30 NW17G26   29.85R WCI  30
PRESCOTT       CLEAR     50   9  19 N20G28    29.81R
FLAGSTAFF      MOCLDY    39   4  23 NW8G20    29.82R WCI  33
PAYSON         CLEAR     54   1  12 NW14G23   29.77R
PAGE           MOCLDY    53  14  21 N7        29.81R
$$

AZZ009>014-017-290300-
NORTHEAST ARIZONA

CITY           SKY/WX    TMP DP  RH WIND       PRES   REMARKS
WINSLOW        CLOUDY    52   6  15 NW14G24   29.79R
SAINT JOHNS    FLURRIES  36  34  92 W12       29.84R WCI  28
WINDOW ROCK    CLOUDY    39  19  44 NW5       29.78R
SHOW LOW       CLOUDY    36  23  60 N17G25    29.83R WCI  25
$$

AZZ540-542>544-546-548-290300-
GREATER PHOENIX AREA

CITY           SKY/WX    TMP DP  RH WIND       PRES   REMARKS
PHOENIX        PTCLDY    76   0   5 NW29G41   29.61S
BUCKEYE        CLEAR     73   1   6 NW21G29   29.69R
GLENDALE       PTCLDY    75   0   5 W21G29    29.68R
LUKE AFB       CLEAR     74   3   6 NW24G32   29.67R
DEER VALLEY    CLEAR     72  -6   4 W22G31    29.66R
SCOTTSDALE     LGT RAIN  73  -2   5 W14G32    29.68R
MESA-FALCON    PTCLDY   N/A N/A N/A W28G40    29.67R
MESA-GATEWAY   CLEAR     75   1   5 NW26G37   29.65R
CHANDLER       CLEAR     77  -2   4 W26G46    29.63R
$$

AZZ539-553-290300-
SOUTHWEST MARICOPA COUNTY AND PINAL COUNTY

CITY           SKY/WX    TMP DP  RH WIND       PRES   REMARKS
CASA GRANDE    MOCLDY    75   4   6 NW25G35   29.66R HAZE
GILA BEND      FAIR      77   5   6 NW21G28   29.66R
$$

AZZ503-504-507>509-290300-
SOUTHEAST ARIZONA

CITY           SKY/WX    TMP DP  RH WIND       PRES   REMARKS
TUCSON         PTCLDY    76  20  12 NW15G25   29.69R
DAVIS-MONTHAN  CLEAR     74  21  13 NW20G26   29.68R
NOGALES        PTCLDY    70  39  32 W12G26    29.73S
SIERRA VISTA   PTCLDY    67  37  33 W28G36    29.72S
DOUGLAS        MOCLDY    71  41  33 SW18      29.69R
SAFFORD        MOCLDY    71  26  18 NW31G40   29.58R
$$

AZZ532-290300-
SOUTHWEST ARIZONA

CITY           SKY/WX    TMP DP  RH WIND       PRES   REMARKS
YUMA           CLEAR     81  18   9 N10       29.65R
$$

CAZ041-043-047-048-061-525>527-560>570-290300-
SOUTHERN CALIFORNIA

CITY           SKY/WX    TMP DP  RH WIND       PRES   REMARKS
DOWNTOWN L.A.  PTCLDY    79  21  11 N8        29.73R
L.A. AIRPORT   PTCLDY    75  30  19 NW15      29.75S
SAN DIEGO      MOCLDY    70  51  51 NW10      29.78R
BURBANK        PTCLDY    75  20  12 N24G31    29.77R
ONTARIO        MOCLDY    75  30  19 SW9       29.73R
RIVERSIDE      CLEAR     76  31  19 W8        29.73R
PALM SPRINGS   CLEAR     83  17   8 N13       29.70R
EL CENTRO NAS  PTCLDY    83  23  11 N9        29.66R
IMPERIAL       PTCLDY    84  31  14 N15       29.64R
BLYTHE         CLEAR     79   6   6 N15       29.69R
NEEDLES        CLEAR     75   5   6 NE21G31   29.75R
$$

NVZ020-UTZ003-290300-
SOUTHERN NEVADA-UTAH

CITY           SKY/WX    TMP DP  RH WIND       PRES   REMARKS
LAS VEGAS      PTCLDY    67   1   7 N23G31    29.85R
SALT LAKE CITY CLOUDY    45  35  68 NW16      29.96R
$$

NMZ009-TXZ055-290300-
NEW MEXICO-WEST TEXAS

CITY           SKY/WX    TMP DP  RH WIND       PRES   REMARKS
ALBUQUERQUE    CLOUDY    40  38  93 SE5       29.78R
EL PASO        CLOUDY    78  37  22 SW29G40   29.59R
$$


........................KEY........................
SKY/WX - SKY CONDITION/WEATHER
TMP    - TEMPERATURE IN FAHRENHEIT
DP     - DEW POINT IN FAHRENHEIT
RH     - RELATIVE HUMIDITY IN PERCENT
WIND   - DIRECTION AND SPEED IN MILES PER HOUR (MPH)
VRB    - VARIABLE WIND DIRECTION
PRES   - MEAN SEA LEVEL PRESSURE IN INCHES OF MERCURY
         F - FALLING PRESSURE   R - RISING PRESSURE
         S - STEADY PRESSURE
VSB    - VISIBILITY IN MILES
HX     - HEAT INDEX IN FAHRENHEIT
WCI    - WIND CHILL INDEX IN FAHRENHEIT
TC     - TEMPERATURE IN CELSIUS WHICH IS ALSO KNOWN AS
         TEMPERATURE IN CENTIGRADE
AFB    - AIR FORCE BASE
         LUKE AFB IS LUKE AIR FORCE BASE
         DAVIS-MONTHAN IS DAVIS-MONTHAN AIR FORCE BASE
NAS    - NAVAL AIR STATION
         EL CENTRO NAS IS EL CENTRO NAVAL AIR STATION
N/A    - NOT AVAILABLE




USA.gov is the U.S. government's official web portal to all federal, state and local government web resources and services.